Notices

What's New in latest Release from April 7th, 2021:

- Updated Glossary, including Speed of Maximum Gust, and Total Hourly Precipitation

- Updated national and regional climate services offices contacts and prices information

- Addition of station inventory lists for 1981-2010, 1971-2000, and 1961-1990 Normals.

If you haven't already, please take our survey and provide feedback about our website: https://eccc.sondage-survey.ca/f/LanguageSelection.aspx?s=442ca660-fcf1-47c0-95a9-59707d6fd709

Hourly Data Report for November 16, 2020

MUSKOKA
ONTARIO
Current Station Operator: NAVCAN

44°58'29.000" N
79°18'12.000" W
281.90 m
6115529
71532
YQA

Download Data

Hourly Data (November 2020)
Hourly Data Report for November 16, 2020
TIME
LST
Temp Definition
°C
Dew Point Definition
°C
Rel Hum Definition
%
Precip. Amount Definition
mm

Wind Dir Definition
10's deg

Wind Spd Definition
km/h
Visibility Definition
km
Stn Press Definition
kPa
Hmdx Definition


Wind Chill Definition


Weather Definition


00:00 2.8 0.7 86 LegendMM 23 32 16.1 96.40     Rain
01:00 2.7 1.1 89 LegendMM 23 24 16.1 96.44     Rain
02:00 2.3 1.1 92 LegendMM 24 30 6.4 96.53     Rain,Fog
03:00 1.9 0.9 93 LegendMM 26 21 2.8 96.68     Moderate Rain,Fog
04:00 0.9 0.2 95 LegendMM 26 17 4.8 96.77     Snow
05:00 1.9 0.9 93 LegendMM 25 24 9.7 96.86     Rain,Fog
06:00 2.5 1.0 90 LegendMM 28 26 16.1 96.93     Rain
07:00 1.9 0.7 92 LegendMM 27 18 14.5 97.05     Snow
08:00 1.7 0.7 93 LegendMM 24 21 16.1 97.15     Rain
09:00 2.0 0.7 91 LegendMM 26 15 16.1 97.25     Rain
10:00 3.3 -0.1 79 LegendMM 28 22 16.1 97.33     LegendNANA
11:00 2.6 -1.2 76 LegendMM 26 24 16.1 97.45     LegendNANA
12:00 2.7 -0.8 78 LegendMM 27 21 16.1 97.48     Rain
13:00 3.2 -3.1 63 LegendMM 27 22 16.1 97.49     LegendNANA
14:00 2.1 -2.2 73 LegendMM 30 21 16.1 97.53     Rain
15:00 2.3 -3.4 66 LegendMM 27 17 16.1 97.55     LegendNANA
16:00 1.0 -1.1 86 LegendMM 30 21 8.1 97.62     Snow
17:00 0.5 -0.7 92 LegendMM 28 15 2.8 97.68     Snow
18:00 0.5 -0.5 93 LegendMM 31 15 9.7 97.70     Snow
19:00 0.1 -0.8 94 LegendMM 30 18 2.0 97.76     Snow
20:00 0.1 -0.8 94 LegendMM 28 17 1.6 97.75     Snow
21:00 0.3 -0.9 92 LegendMM 28 11 16.1 97.77     LegendNANA
22:00 0.2 -1.3 90 LegendMM 30 5 16.1 97.77     Rain
23:00 -0.2 -1.2 93 LegendMM 22 8 16.1 97.75   -3 Snow

Notes on Data Quality.

Legend

  • E = Estimated
  • M = Missing
  • NA = Not Available*
  • [empty] = Indicates an unobserved value
Date modified: